Weather History for Whiteville, NC

Change the Weather History Date:

Tuesday, February 5, 2013

  Actual Average (KLBT) Record (KLBT)
Temperature  
Mean Temperature 51 °F 45 °F  
Max Temperature 66 °F 56 °F 78 °F (2008)
Min Temperature 36 °F 34 °F 20 °F (2009)
Degree Days  
Heating Degree Days 14 20  
Month to date heating degree days 102  
Since 1 July heating degree days 1821  
Cooling Degree Days 0 0  
Month to date cooling degree days 0  
Year to date cooling degree days 1  
Growing Degree Days 1 (Base 50)    
Moisture  
Dew Point 35 °F    
Average Humidity 57    
Maximum Humidity 91    
Minimum Humidity 26    
Precipitation  
Precipitation 0.00 in 0.09 in 0.49 in (2011)
Month to date precipitation 0.42  
Year to date precipitation 3.39  
Sea Level Pressure  
Sea Level Pressure 29.98 in    
Wind  
Wind Speed 3 mph (SW)    
Max Wind Speed 13 mph    
Max Gust Speed 20 mph    
Visibility 10 miles    
Events      
T = Trace of Precipitation, MM = Missing Value Source: NWS Daily Summary

Daily Weather History Graph

Daily Weather History Graph

Search for Another Location

Airport:

Trip Planner

Search our weather history database for the weather conditions in past years. The results will help you decide how hot, cold, wet, or windy it might be!

Date:

Astronomy

Feb. 05, 2013 Rise Set
Actual Time 7:09 AM EST 5:49 PM EST
Civil Twilight 6:42 AM EST 6:15 PM EST
Nautical Twilight 6:13 AM EST 6:45 PM EST
Astronomical Twilight 5:43 AM EST 7:14 PM EST
Moon 2:44 AM EST (2/5) 1:09 PM EST (2/5)
Length of Visible Light 11h 32m
Length of Day
10h 40m
Waning Crescent, 27% of the Moon is Illuminated
Feb 5
Waning Crescent
Feb 10
New
Feb 17
First Quarter
Feb 25
Full
Mar 4
Last Quarter

Hourly Weather History & Observations

Time (EST) Temp. Windchill Dew Point Humidity Pressure Visibility Wind Dir Wind Speed Gust Speed Precip Events Conditions
12:15 AM 41.2 °F - 34.2 °F 76% 30.06 in 10.0 mi Calm Calm - N/A   Clear
12:35 AM 41.0 °F - 34.3 °F 77% 30.05 in 10.0 mi Calm Calm - N/A   Clear
12:55 AM 40.8 °F - 34.7 °F 79% 30.05 in 10.0 mi Calm Calm - N/A   Clear
1:15 AM 41.0 °F - 34.9 °F 79% 30.04 in 10.0 mi Calm Calm - N/A   Clear
1:35 AM 41.5 °F 38.6 °F 34.7 °F 77% 30.04 in 10.0 mi SSW 4.6 mph - N/A   Clear
1:55 AM 41.9 °F 40.0 °F 34.2 °F 74% 30.03 in 10.0 mi SSW 3.5 mph - N/A   Clear
2:15 AM 41.9 °F - 34.2 °F 74% 30.02 in 10.0 mi Calm Calm - N/A   Clear
2:35 AM 41.9 °F 40.0 °F 34.2 °F 74% 30.01 in 10.0 mi SSW 3.5 mph - N/A   Clear
2:55 AM 41.9 °F 40.0 °F 34.3 °F 75% 30.00 in 10.0 mi SSW 3.5 mph - N/A   Clear
3:15 AM 42.1 °F 40.2 °F 34.3 °F 74% 30.00 in 10.0 mi SW 3.5 mph - N/A   Clear
3:35 AM 42.3 °F 39.4 °F 34.7 °F 75% 30.00 in 10.0 mi SSW 4.6 mph - N/A   Clear
3:55 AM 41.9 °F 40.0 °F 34.7 °F 76% 29.99 in 10.0 mi SSW 3.5 mph - N/A   Clear
4:15 AM 40.3 °F - 34.3 °F 79% 29.98 in 10.0 mi Calm Calm - N/A   Clear
4:35 AM 40.8 °F - 34.3 °F 78% 29.98 in 10.0 mi Calm Calm - N/A   Clear
4:55 AM 39.4 °F - 34.2 °F 82% 29.98 in 10.0 mi Calm Calm - N/A   Clear
5:15 AM 37.4 °F - 33.8 °F 87% 29.98 in 10.0 mi Calm Calm - N/A   Clear
5:35 AM 37.6 °F 35.1 °F 34.7 °F 89% 29.99 in 10.0 mi SSW 3.5 mph - N/A   Clear
5:55 AM 37.0 °F - 34.2 °F 89% 30.00 in 10.0 mi Calm Calm - N/A   Clear
6:15 AM 36.5 °F 31.8 °F 34.0 °F 91% 30.00 in 10.0 mi SSW 5.8 mph - N/A   Clear
6:35 AM 38.8 °F 36.5 °F 35.8 °F 89% 30.01 in 10.0 mi SW 3.5 mph - N/A   Clear
6:55 AM 37.6 °F 35.1 °F 34.7 °F 89% 30.01 in 10.0 mi SW 3.5 mph - N/A   Clear
7:15 AM 37.2 °F 33.6 °F 34.0 °F 88% 30.02 in 10.0 mi SSW 4.6 mph - N/A   Clear
7:35 AM 38.5 °F 34.1 °F 35.6 °F 89% 30.02 in 10.0 mi SSW 5.8 mph - N/A   Clear
7:55 AM 40.3 °F 37.1 °F 36.3 °F 86% 30.03 in 10.0 mi SSW 4.6 mph - N/A   Clear
8:15 AM 42.4 °F - 37.2 °F 82% 30.04 in 10.0 mi Calm Calm - N/A   Clear
8:35 AM 45.3 °F 43.0 °F 36.9 °F 72% 30.05 in 10.0 mi SSW 4.6 mph - N/A   Clear
8:55 AM 47.7 °F - 36.3 °F 65% 30.05 in 10.0 mi SW 8.1 mph - N/A   Clear
9:15 AM 50.5 °F - 36.0 °F 57% 30.05 in 10.0 mi SW 6.9 mph - N/A   Clear
9:35 AM 52.9 °F - 35.6 °F 52% 30.05 in 10.0 mi SW 10.4 mph - N/A   Clear
9:55 AM 54.3 °F - 34.9 °F 48% 30.03 in 10.0 mi SW 4.6 mph - N/A   Clear
10:15 AM 56.3 °F - 34.3 °F 44% 30.03 in 10.0 mi SW 6.9 mph - N/A   Clear
10:35 AM 57.4 °F - 33.4 °F 40% 30.03 in 10.0 mi SW 8.1 mph - N/A   Clear
10:55 AM 59.4 °F - 34.0 °F 39% 30.03 in 10.0 mi WSW 5.8 mph 16.1 mph N/A   Clear
11:15 AM 60.1 °F - 33.3 °F 36% 30.02 in 10.0 mi SW 9.2 mph - N/A   Clear
11:35 AM 61.2 °F - 33.4 °F 35% 30.01 in 10.0 mi West 6.9 mph - N/A   Clear
11:55 AM 61.2 °F - 33.8 °F 36% 30.00 in 10.0 mi SW 6.9 mph 19.6 mph N/A   Clear
12:15 PM 62.8 °F - 33.4 °F 33% 29.99 in 10.0 mi SW 12.7 mph 16.1 mph N/A   Clear
12:35 PM 62.8 °F - 32.5 °F 32% 29.98 in 10.0 mi SW 8.1 mph 16.1 mph N/A   Clear
12:55 PM 63.1 °F - 30.7 °F 30% 29.97 in 10.0 mi SSW 11.5 mph 17.3 mph N/A   Clear
1:15 PM 64.6 °F - 30.4 °F 28% 29.95 in 10.0 mi SW 8.1 mph - N/A   Clear
1:35 PM 64.8 °F - 30.6 °F 28% 29.94 in 10.0 mi SW 10.4 mph 16.1 mph N/A   Clear
1:55 PM 65.7 °F - 29.8 °F 26% 29.94 in 10.0 mi WSW 6.9 mph - N/A   Clear
2:15 PM 66.2 °F - 30.6 °F 26% 29.93 in 10.0 mi WSW 8.1 mph - N/A   Clear
2:35 PM 65.7 °F - 30.7 °F 27% 29.93 in 10.0 mi SW 6.9 mph - N/A   Clear
2:55 PM 66.9 °F - 30.7 °F 26% 29.93 in 10.0 mi WSW 9.2 mph - N/A   Clear
3:15 PM 65.1 °F - 30.6 °F 27% 29.93 in 10.0 mi WSW 6.9 mph - N/A   Clear
3:35 PM 66.0 °F - 30.7 °F 27% 29.92 in 10.0 mi SW 10.4 mph - N/A   Clear
3:55 PM 65.8 °F - 30.4 °F 27% 29.92 in 10.0 mi SW 6.9 mph - N/A   Clear
4:15 PM 64.8 °F - 30.7 °F 28% 29.92 in 10.0 mi SSW 11.5 mph 16.1 mph N/A   Clear
4:35 PM 65.5 °F - 31.1 °F 28% 29.92 in 10.0 mi SW 8.1 mph - N/A   Clear
4:55 PM 64.8 °F - 31.8 °F 29% 29.91 in 10.0 mi SSW 11.5 mph - N/A   Clear
5:15 PM 63.9 °F - 32.0 °F 30% 29.91 in 10.0 mi SW 8.1 mph - N/A   Clear
5:35 PM 63.0 °F - 32.5 °F 32% 29.92 in 10.0 mi SW 4.6 mph - N/A   Clear
5:55 PM 59.7 °F - 34.7 °F 39% 29.91 in 10.0 mi SSW 4.6 mph - N/A   Clear
6:15 PM 59.0 °F - 35.2 °F 41% 29.92 in 10.0 mi SW 3.5 mph - N/A   Clear
6:35 PM 58.5 °F - 35.8 °F 43% 29.93 in 10.0 mi SSW 3.5 mph - N/A   Scattered Clouds
6:55 PM 57.4 °F - 36.5 °F 46% 29.93 in 10.0 mi Calm Calm - N/A   Scattered Clouds
7:15 PM 55.4 °F - 37.4 °F 51% 29.94 in 10.0 mi Calm Calm - N/A   Clear
7:35 PM 55.8 °F - 37.4 °F 50% 29.94 in 10.0 mi SSW 3.5 mph - N/A   Scattered Clouds
7:55 PM 54.5 °F - 38.1 °F 54% 29.95 in 10.0 mi Calm Calm - N/A   Scattered Clouds
8:15 PM 54.0 °F - 37.9 °F 55% 29.95 in 10.0 mi Calm Calm - N/A   Scattered Clouds
8:35 PM 54.3 °F - 37.9 °F 54% 29.96 in 10.0 mi SSW 3.5 mph - N/A   Clear
8:55 PM 52.0 °F - 38.5 °F 60% 29.97 in 10.0 mi Calm Calm - N/A   Clear
9:15 PM 48.9 °F - 38.8 °F 68% 29.97 in 10.0 mi SSW 3.5 mph - N/A   Clear
9:35 PM 50.7 °F - 38.7 °F 63% 29.98 in 10.0 mi Calm Calm - N/A   Clear
9:55 PM 51.6 °F - 38.7 °F 61% 29.98 in 10.0 mi SSW 5.8 mph - N/A   Clear
10:15 PM 50.5 °F - 39.0 °F 65% 29.99 in 10.0 mi Calm Calm - N/A   Clear
10:35 PM 49.3 °F - 39.4 °F 69% 29.99 in 10.0 mi SSW 3.5 mph - N/A   Clear
10:55 PM 50.2 °F - 40.1 °F 68% 30.00 in 10.0 mi SSW 4.6 mph - N/A   Clear
11:15 PM 50.0 °F - 40.3 °F 69% 30.00 in 10.0 mi Calm Calm - N/A   Clear
11:35 PM 49.5 °F - 40.3 °F 71% 30.00 in 10.0 mi Calm Calm - N/A   Clear
11:55 PM 48.9 °F - 40.6 °F 73% 30.00 in 10.0 mi Calm Calm - N/A   Clear